Year,Month,Day,Hour,Minute,Value (Times are PST for temperature in C)
2014,02,08,00,00,-8.50
2014,02,08,00,01,-8.50
2014,02,08,00,02,-8.50
2014,02,08,00,03,-8.50
2014,02,08,00,04,-8.50
2014,02,08,00,05,-8.50
2014,02,08,00,06,-8.50
2014,02,08,00,07,-8.50
2014,02,08,00,08,-8.50
2014,02,08,00,09,-8.60
2014,02,08,00,10,-8.60
2014,02,08,00,11,-8.60
2014,02,08,00,12,-8.60
2014,02,08,00,13,-8.60
2014,02,08,00,14,-8.60
2014,02,08,00,15,-8.60
2014,02,08,00,16,-8.60
2014,02,08,00,17,-8.60
2014,02,08,00,18,-8.60
2014,02,08,00,19,-8.60
2014,02,08,00,20,-8.70
2014,02,08,00,21,-8.70
2014,02,08,00,22,-8.70
2014,02,08,00,23,-8.70
2014,02,08,00,24,-8.70
2014,02,08,00,25,-8.70
2014,02,08,00,26,-8.70
2014,02,08,00,27,-8.70
2014,02,08,00,28,-8.70
2014,02,08,00,29,-8.70
2014,02,08,00,30,-8.70
2014,02,08,00,31,-8.80
2014,02,08,00,32,-8.80
2014,02,08,00,33,-8.80
2014,02,08,00,34,-8.80
2014,02,08,00,35,-8.80
2014,02,08,00,36,-8.80
2014,02,08,00,37,-8.80
2014,02,08,00,38,-8.80
2014,02,08,00,39,-8.80
2014,02,08,00,40,-8.80
2014,02,08,00,41,-8.80
2014,02,08,00,42,-8.80
2014,02,08,00,43,-8.80
2014,02,08,00,44,-8.90
2014,02,08,00,45,-8.90
2014,02,08,00,46,-8.90
2014,02,08,00,47,-8.90
2014,02,08,00,48,-8.90
2014,02,08,00,49,-8.90
2014,02,08,00,50,-8.90
2014,02,08,00,51,-8.90
2014,02,08,00,52,-8.90
2014,02,08,00,53,-8.90
2014,02,08,00,54,-8.90
2014,02,08,00,55,-8.90
2014,02,08,00,56,-8.90
2014,02,08,00,57,-9.00
2014,02,08,00,58,-9.00
2014,02,08,00,59,-9.00
2014,02,08,01,00,-9.00
2014,02,08,01,01,-9.00
2014,02,08,01,02,-9.00
2014,02,08,01,03,-9.00
2014,02,08,01,04,-9.00
2014,02,08,01,05,-9.00
2014,02,08,01,06,-9.00
2014,02,08,01,07,-9.00
2014,02,08,01,08,-9.00
2014,02,08,01,09,-9.00
2014,02,08,01,10,-9.00
2014,02,08,01,11,-9.10
2014,02,08,01,12,-9.10
2014,02,08,01,13,-9.10
2014,02,08,01,14,-9.10
2014,02,08,01,15,-9.10
2014,02,08,01,16,-9.10
2014,02,08,01,17,-9.10
2014,02,08,01,18,-9.10
2014,02,08,01,19,-9.10
2014,02,08,01,20,-9.10
2014,02,08,01,21,-9.10
2014,02,08,01,22,-9.10
2014,02,08,01,23,-9.10
2014,02,08,01,24,-9.10
2014,02,08,01,25,-9.10
2014,02,08,01,26,-9.10
2014,02,08,01,27,-9.20
2014,02,08,01,28,-9.20
2014,02,08,01,29,-9.20
2014,02,08,01,30,-9.20
2014,02,08,01,31,-9.20
2014,02,08,01,32,-9.20
2014,02,08,01,33,-9.20
2014,02,08,01,34,-9.20
2014,02,08,01,35,-9.20
2014,02,08,01,36,-9.20
2014,02,08,01,37,-9.20
2014,02,08,01,38,-9.20
2014,02,08,01,39,-9.20
2014,02,08,01,40,-9.20
2014,02,08,01,41,-9.20
2014,02,08,01,42,-9.20
2014,02,08,01,43,-9.20
2014,02,08,01,44,-9.20
2014,02,08,01,45,-9.20
2014,02,08,01,46,-9.20
2014,02,08,01,47,-9.20
2014,02,08,01,48,-9.20
2014,02,08,01,49,-9.20
2014,02,08,01,50,-9.20
2014,02,08,01,51,-9.20
2014,02,08,01,52,-9.20
2014,02,08,01,53,-9.20
2014,02,08,01,54,-9.20
2014,02,08,01,55,-9.30
2014,02,08,01,56,-9.30
2014,02,08,01,57,-9.30
2014,02,08,01,58,-9.30
2014,02,08,01,59,-9.30
2014,02,08,02,00,-9.30
2014,02,08,02,01,-9.30
2014,02,08,02,02,-9.30
2014,02,08,02,03,-9.30
2014,02,08,02,04,-9.30
2014,02,08,02,05,-9.30
2014,02,08,02,06,-9.30
2014,02,08,02,07,-9.30
2014,02,08,02,08,-9.30
2014,02,08,02,09,-9.40
2014,02,08,02,10,-9.40
2014,02,08,02,11,-9.40
2014,02,08,02,12,-9.40
2014,02,08,02,13,-9.40
2014,02,08,02,14,-9.40
2014,02,08,02,15,-9.40
2014,02,08,02,16,-9.40
2014,02,08,02,17,-9.40
2014,02,08,02,18,-9.40
2014,02,08,02,19,-9.40
2014,02,08,02,20,-9.40
2014,02,08,02,21,-9.40
2014,02,08,02,22,-9.40
2014,02,08,02,23,-9.50
2014,02,08,02,24,-9.50
2014,02,08,02,25,-9.50
2014,02,08,02,26,-9.50
2014,02,08,02,27,-9.50
2014,02,08,02,28,-9.50
2014,02,08,02,29,-9.50
2014,02,08,02,30,-9.50
2014,02,08,02,31,-9.50
2014,02,08,02,32,-9.50
2014,02,08,02,33,-9.60
2014,02,08,02,34,-9.60
2014,02,08,02,35,-9.60
2014,02,08,02,36,-9.60
2014,02,08,02,37,-9.60
2014,02,08,02,38,-9.60
2014,02,08,02,39,-9.60
2014,02,08,02,40,-9.60
2014,02,08,02,41,-9.60
2014,02,08,02,42,-9.60
2014,02,08,02,43,-9.60
2014,02,08,02,44,-9.70
2014,02,08,02,45,-9.70
2014,02,08,02,46,-9.70
2014,02,08,02,47,-9.70
2014,02,08,02,48,-9.70
2014,02,08,02,49,-9.70
2014,02,08,02,50,-9.70
2014,02,08,02,51,-9.70
2014,02,08,02,52,-9.70
2014,02,08,02,53,-9.70
2014,02,08,02,54,-9.70
2014,02,08,02,55,-9.70
2014,02,08,02,56,-9.70
2014,02,08,02,57,-9.70
2014,02,08,02,58,-9.70
2014,02,08,02,59,-9.70
2014,02,08,03,00,-9.70
2014,02,08,03,01,-9.70
2014,02,08,03,02,-9.70
2014,02,08,03,03,-9.70
2014,02,08,03,04,-9.80
2014,02,08,03,05,-9.80
2014,02,08,03,06,-9.80
2014,02,08,03,07,-9.80
2014,02,08,03,08,-9.80
2014,02,08,03,09,-9.80
2014,02,08,03,10,-9.80
2014,02,08,03,11,-9.80
2014,02,08,03,12,-9.80
2014,02,08,03,13,-9.80
2014,02,08,03,14,-9.80
2014,02,08,03,15,-9.80
2014,02,08,03,16,-9.80
2014,02,08,03,17,-9.80
2014,02,08,03,18,-9.80
2014,02,08,03,19,-9.80
2014,02,08,03,20,-9.80
2014,02,08,03,21,-9.80
2014,02,08,03,22,-9.80
2014,02,08,03,23,-9.80
2014,02,08,03,24,-9.90
2014,02,08,03,25,-9.90
2014,02,08,03,26,-9.90
2014,02,08,03,27,-9.90
2014,02,08,03,28,-9.90
2014,02,08,03,29,-9.90
2014,02,08,03,30,-9.90
2014,02,08,03,31,-9.90
2014,02,08,03,32,-9.90
2014,02,08,03,33,-9.90
2014,02,08,03,34,-9.90
2014,02,08,03,35,-9.90
2014,02,08,03,36,-9.90
2014,02,08,03,37,-9.90
2014,02,08,03,38,-9.90
2014,02,08,03,39,-9.90
2014,02,08,03,40,-9.90
2014,02,08,03,41,-9.90
2014,02,08,03,42,-9.90
2014,02,08,03,43,-10.00
2014,02,08,03,44,-10.00
2014,02,08,03,45,-10.00
2014,02,08,03,46,-10.00
2014,02,08,03,47,-10.00
2014,02,08,03,48,-10.00
2014,02,08,03,49,-10.00
2014,02,08,03,50,-10.00
2014,02,08,03,51,-10.00
2014,02,08,03,52,-10.00
2014,02,08,03,53,-10.00
2014,02,08,03,54,-10.00
2014,02,08,03,55,-10.00
2014,02,08,03,56,-10.00
2014,02,08,03,57,-10.00
2014,02,08,03,58,-10.00
2014,02,08,03,59,-10.00
2014,02,08,04,00,-10.10
2014,02,08,04,01,-10.10
2014,02,08,04,02,-10.10
2014,02,08,04,03,-10.10
2014,02,08,04,04,-10.10
2014,02,08,04,05,-10.10
2014,02,08,04,06,-10.10
2014,02,08,04,07,-10.10
2014,02,08,04,08,-10.10
2014,02,08,04,09,-10.10
2014,02,08,04,10,-10.10
2014,02,08,04,11,-10.10
2014,02,08,04,12,-10.10
2014,02,08,04,13,-10.10
2014,02,08,04,14,-10.10
2014,02,08,04,15,-10.10
2014,02,08,04,16,-10.10
2014,02,08,04,17,-10.20
2014,02,08,04,18,-10.20
2014,02,08,04,19,-10.20
2014,02,08,04,20,-10.20
2014,02,08,04,21,-10.20
2014,02,08,04,22,-10.20
2014,02,08,04,23,-10.20
2014,02,08,04,24,-10.20
2014,02,08,04,25,-10.20
2014,02,08,04,26,-10.20
2014,02,08,04,27,-10.20
2014,02,08,04,28,-10.20
2014,02,08,04,29,-10.20
2014,02,08,04,30,-10.20
2014,02,08,04,31,-10.20
2014,02,08,04,32,-10.20
2014,02,08,04,33,-10.30
2014,02,08,04,34,-10.30
2014,02,08,04,35,-10.30
2014,02,08,04,36,-10.30
2014,02,08,04,37,-10.30
2014,02,08,04,38,-10.30
2014,02,08,04,39,-10.30
2014,02,08,04,40,-10.30
2014,02,08,04,41,-10.30
2014,02,08,04,42,-10.30
2014,02,08,04,43,-10.30
2014,02,08,04,44,-10.30
2014,02,08,04,45,-10.30
2014,02,08,04,46,-10.30
2014,02,08,04,47,-10.30
2014,02,08,04,48,-10.30
2014,02,08,04,49,-10.30
2014,02,08,04,50,-10.30
2014,02,08,04,51,-10.30
2014,02,08,04,52,-10.30
2014,02,08,04,53,-10.30
2014,02,08,04,54,-10.30
2014,02,08,04,55,-10.30
2014,02,08,04,56,-10.30
2014,02,08,04,57,-10.30
2014,02,08,04,58,-10.30
2014,02,08,04,59,-10.30
2014,02,08,05,00,-10.40
2014,02,08,05,01,-10.40
2014,02,08,05,02,-10.40
2014,02,08,05,03,-10.40
2014,02,08,05,04,-10.40
2014,02,08,05,05,-10.40
2014,02,08,05,06,-10.40
2014,02,08,05,07,-10.40
2014,02,08,05,08,-10.40
2014,02,08,05,09,-10.40
2014,02,08,05,10,-10.40
2014,02,08,05,11,-10.40
2014,02,08,05,12,-10.40
2014,02,08,05,13,-10.40
2014,02,08,05,14,-10.40
2014,02,08,05,15,-10.40
2014,02,08,05,16,-10.40
2014,02,08,05,17,-10.40
2014,02,08,05,18,-10.50
2014,02,08,05,19,-10.50
2014,02,08,05,20,-10.50
2014,02,08,05,21,-10.50
2014,02,08,05,22,-10.50
2014,02,08,05,23,-10.50
2014,02,08,05,24,-10.50
2014,02,08,05,25,-10.50
2014,02,08,05,26,-10.40
2014,02,08,05,27,-10.40
2014,02,08,05,28,-10.40
2014,02,08,05,29,-10.50
2014,02,08,05,30,-10.50
2014,02,08,05,31,-10.50
2014,02,08,05,32,-10.50
2014,02,08,05,33,-10.50
2014,02,08,05,34,-10.50
2014,02,08,05,35,-10.50
2014,02,08,05,36,-10.50
2014,02,08,05,37,-10.50
2014,02,08,05,38,-10.50
2014,02,08,05,39,-10.50
2014,02,08,05,40,-10.50
2014,02,08,05,41,-10.50
2014,02,08,05,42,-10.60
2014,02,08,05,43,-10.60
2014,02,08,05,44,-10.60
2014,02,08,05,45,-10.60
2014,02,08,05,46,-10.60
2014,02,08,05,47,-10.60
2014,02,08,05,48,-10.60
2014,02,08,05,49,-10.60
2014,02,08,05,50,-10.60
2014,02,08,05,51,-10.60
2014,02,08,05,52,-10.60
2014,02,08,05,53,-10.60
2014,02,08,05,54,-10.60
2014,02,08,05,55,-10.60
2014,02,08,05,56,-10.60
2014,02,08,05,57,-10.60
2014,02,08,05,58,-10.60
2014,02,08,05,59,-10.60
2014,02,08,06,00,-10.60
2014,02,08,06,01,-10.70
2014,02,08,06,02,-10.70
2014,02,08,06,03,-10.70
2014,02,08,06,04,-10.70
2014,02,08,06,05,-10.70
2014,02,08,06,06,-10.70
2014,02,08,06,07,-10.70
2014,02,08,06,08,-10.70
2014,02,08,06,09,-10.70
2014,02,08,06,10,-10.70
2014,02,08,06,11,-10.70
2014,02,08,06,12,-10.70
2014,02,08,06,13,-10.60
2014,02,08,06,14,-10.60
2014,02,08,06,15,-10.60
2014,02,08,06,16,-10.60
2014,02,08,06,17,-10.60
2014,02,08,06,18,-10.60
2014,02,08,06,19,-10.60
2014,02,08,06,20,-10.60
2014,02,08,06,21,-10.60
2014,02,08,06,22,-10.60
2014,02,08,06,23,-10.60
2014,02,08,06,24,-10.60
2014,02,08,06,25,-10.60
2014,02,08,06,26,-10.60
2014,02,08,06,27,-10.60
2014,02,08,06,28,-10.60
2014,02,08,06,29,-10.60
2014,02,08,06,30,-10.60
2014,02,08,06,31,-10.60
2014,02,08,06,32,-10.60
2014,02,08,06,33,-10.60
2014,02,08,06,34,-10.60
2014,02,08,06,35,-10.60
2014,02,08,06,36,-10.60
2014,02,08,06,37,-10.60
2014,02,08,06,38,-10.60
2014,02,08,06,39,-10.60
2014,02,08,06,40,-10.60
2014,02,08,06,41,-10.60
2014,02,08,06,42,-10.60
2014,02,08,06,43,-10.60
2014,02,08,06,44,-10.60
2014,02,08,06,45,-10.60
2014,02,08,06,46,-10.60
2014,02,08,06,47,-10.60
2014,02,08,06,48,-10.60
2014,02,08,06,49,-10.60
2014,02,08,08,29,-9.30
2014,02,08,08,30,-9.30
2014,02,08,08,31,-9.20
2014,02,08,08,32,-9.10
2014,02,08,08,33,-9.10
2014,02,08,08,34,-9.10
2014,02,08,08,35,-9.00
2014,02,08,08,36,-8.90
2014,02,08,08,37,-8.90
2014,02,08,08,38,-8.80
2014,02,08,08,39,-8.70
2014,02,08,08,40,-8.70
2014,02,08,08,41,-8.60
2014,02,08,08,42,-8.60
2014,02,08,08,43,-8.50
2014,02,08,08,44,-8.50
2014,02,08,08,45,-8.40
2014,02,08,08,46,-8.30
2014,02,08,08,47,-8.20
2014,02,08,08,48,-8.10
2014,02,08,08,49,-8.00
2014,02,08,08,50,-8.00
2014,02,08,08,51,-7.90
2014,02,08,08,52,-7.80
2014,02,08,08,53,-7.70
2014,02,08,08,54,-7.60
2014,02,08,08,55,-7.50
2014,02,08,08,56,-7.30
2014,02,08,08,57,-7.20
2014,02,08,08,58,-7.10
2014,02,08,08,59,-7.00
2014,02,08,09,00,-6.80
2014,02,08,09,01,-6.80
2014,02,08,09,02,-6.70
2014,02,08,09,03,-6.50
2014,02,08,09,04,-6.40
2014,02,08,09,05,-6.20
2014,02,08,09,06,-6.10
2014,02,08,09,07,-6.10
2014,02,08,09,08,-6.00
2014,02,08,09,09,-5.90
2014,02,08,09,10,-5.80
2014,02,08,09,11,-5.70
2014,02,08,09,12,-5.70
2014,02,08,09,13,-5.60
2014,02,08,09,14,-5.50
2014,02,08,09,15,-5.40
2014,02,08,09,16,-5.30
2014,02,08,09,17,-5.10
2014,02,08,09,18,-5.00
2014,02,08,09,19,-4.90
2014,02,08,09,20,-4.80
2014,02,08,09,21,-4.70
2014,02,08,09,22,-4.60
2014,02,08,09,23,-4.50
2014,02,08,09,24,-4.50
2014,02,08,09,25,-4.40
2014,02,08,09,26,-4.30
2014,02,08,09,27,-4.20
2014,02,08,09,28,-4.10
2014,02,08,09,29,-4.00
2014,02,08,09,30,-3.90
2014,02,08,09,31,-3.80
2014,02,08,09,32,-3.70
2014,02,08,09,33,-3.60
2014,02,08,09,34,-3.60
2014,02,08,09,35,-3.50
2014,02,08,09,36,-3.40
2014,02,08,09,37,-3.30
2014,02,08,09,38,-3.30
2014,02,08,09,39,-3.20
2014,02,08,09,40,-3.20
2014,02,08,09,41,-3.00
2014,02,08,09,42,-3.00
2014,02,08,09,43,-2.90
2014,02,08,09,44,-2.80
2014,02,08,09,45,-2.70
2014,02,08,09,46,-2.70
2014,02,08,09,47,-2.60
2014,02,08,09,48,-2.60
2014,02,08,09,49,-2.60
2014,02,08,09,50,-2.50
2014,02,08,09,51,-2.50
2014,02,08,09,52,-2.40
2014,02,08,09,53,-2.40
2014,02,08,09,54,-2.30
2014,02,08,09,55,-2.20
2014,02,08,09,56,-2.20
2014,02,08,09,57,-2.20
2014,02,08,09,58,-2.10
2014,02,08,09,59,-2.00
2014,02,08,10,00,-1.90
2014,02,08,10,01,-1.90
2014,02,08,10,02,-1.90
2014,02,08,10,03,-1.90
2014,02,08,10,04,-1.90
2014,02,08,10,05,-2.00
2014,02,08,10,06,-2.00
2014,02,08,10,07,-2.10
2014,02,08,10,08,-2.10
2014,02,08,10,09,-2.20
2014,02,08,10,10,-2.20
2014,02,08,10,11,-2.30
2014,02,08,10,12,-2.30
2014,02,08,10,13,-2.30
2014,02,08,10,14,-2.30
2014,02,08,10,15,-2.40
2014,02,08,10,16,-2.40
2014,02,08,10,17,-2.40
2014,02,08,10,18,-2.40
2014,02,08,10,19,-2.40
2014,02,08,10,20,-2.40
2014,02,08,10,21,-2.40
2014,02,08,10,22,-2.40
2014,02,08,10,23,-2.50
2014,02,08,10,24,-2.40
2014,02,08,10,25,-2.40
2014,02,08,10,26,-2.40
2014,02,08,10,27,-2.40
2014,02,08,10,28,-2.40
2014,02,08,10,29,-2.40
2014,02,08,10,30,-2.40
2014,02,08,10,31,-2.40
2014,02,08,10,32,-2.40
2014,02,08,10,33,-2.40
2014,02,08,10,34,-2.40
2014,02,08,10,35,-2.40
2014,02,08,10,36,-2.40
2014,02,08,10,37,-2.50
2014,02,08,10,38,-2.50
2014,02,08,10,39,-2.40
2014,02,08,10,40,-2.40
2014,02,08,10,41,-2.40
2014,02,08,10,42,-2.40
2014,02,08,10,43,-2.40
2014,02,08,10,44,-2.30
2014,02,08,10,45,-2.30
2014,02,08,10,46,-2.20
2014,02,08,10,47,-2.20
2014,02,08,10,48,-2.10
2014,02,08,10,49,-2.10
2014,02,08,10,50,-2.10
2014,02,08,10,51,-2.10
2014,02,08,10,52,-2.00
2014,02,08,10,53,-2.00
2014,02,08,10,54,-2.00
2014,02,08,10,55,-1.90
2014,02,08,10,56,-1.90
2014,02,08,10,57,-1.80
2014,02,08,10,58,-1.70
2014,02,08,10,59,-1.70
2014,02,08,11,00,-1.70
2014,02,08,11,01,-1.60
2014,02,08,11,02,-1.50
2014,02,08,11,03,-1.40
2014,02,08,11,04,-1.40
2014,02,08,11,05,-1.30
2014,02,08,11,06,-1.30
2014,02,08,11,07,-1.20
2014,02,08,11,08,-1.20
2014,02,08,11,09,-1.20
2014,02,08,11,10,-1.30
2014,02,08,11,11,-1.30
2014,02,08,11,12,-1.30
2014,02,08,11,13,-1.20
2014,02,08,11,14,-1.10
2014,02,08,11,15,-1.10
2014,02,08,11,16,-1.00
2014,02,08,11,17,-0.90
2014,02,08,11,18,-0.90
2014,02,08,11,19,-0.90
2014,02,08,11,20,-0.80
2014,02,08,11,21,-0.80
2014,02,08,11,22,-0.80
2014,02,08,11,23,-0.80
2014,02,08,11,24,-0.80
2014,02,08,11,25,-0.80
2014,02,08,11,26,-0.70
2014,02,08,11,27,-0.70
2014,02,08,11,28,-0.70
2014,02,08,11,29,-0.80
2014,02,08,11,30,-0.80
2014,02,08,11,31,-0.80
2014,02,08,11,32,-0.90
2014,02,08,11,33,-0.90
2014,02,08,11,34,-1.00
2014,02,08,11,35,-1.00
2014,02,08,11,36,-1.00
2014,02,08,11,37,-1.00
2014,02,08,11,38,-1.00
2014,02,08,11,39,-1.00
2014,02,08,11,40,-1.00
2014,02,08,11,41,-1.00
2014,02,08,11,42,-0.90
2014,02,08,11,43,-0.90
2014,02,08,11,44,-0.90
2014,02,08,11,45,-0.90
2014,02,08,11,46,-0.90
2014,02,08,11,47,-0.90
2014,02,08,11,48,-0.90
2014,02,08,11,49,-0.90
2014,02,08,11,50,-0.90
2014,02,08,11,51,-0.80
2014,02,08,11,52,-0.80
2014,02,08,11,53,-0.80
2014,02,08,11,54,-0.70
2014,02,08,11,55,-0.70
2014,02,08,11,56,-0.60
2014,02,08,11,57,-0.60
2014,02,08,11,58,-0.50
2014,02,08,11,59,-0.50
2014,02,08,12,00,-0.40
2014,02,08,12,01,-0.50
2014,02,08,12,02,-0.40
2014,02,08,12,03,-0.40
2014,02,08,12,04,-0.40
2014,02,08,12,05,-0.30
2014,02,08,12,06,-0.30
2014,02,08,12,07,-0.20
2014,02,08,12,08,-0.20
2014,02,08,12,09,-0.20
2014,02,08,12,10,-0.10
2014,02,08,12,11,-0.10
2014,02,08,12,12,0.00
2014,02,08,12,13,0.00
2014,02,08,12,14,0.10
2014,02,08,12,15,0.10
2014,02,08,12,16,0.10
2014,02,08,12,17,0.20
2014,02,08,12,18,0.20
2014,02,08,12,19,0.30
2014,02,08,12,20,0.30
2014,02,08,12,21,0.40
2014,02,08,12,22,0.50
2014,02,08,12,23,0.60
2014,02,08,12,24,0.70
2014,02,08,12,25,0.70
2014,02,08,12,26,0.70
2014,02,08,12,27,0.70
2014,02,08,12,28,0.70
2014,02,08,12,29,0.70
2014,02,08,12,30,0.80
2014,02,08,12,31,0.80
2014,02,08,12,32,0.80
2014,02,08,12,33,0.80
2014,02,08,12,34,0.70
2014,02,08,12,35,0.70
2014,02,08,12,36,0.70
2014,02,08,12,37,0.70
2014,02,08,12,38,0.70
2014,02,08,12,39,0.60
2014,02,08,12,40,0.60
2014,02,08,12,41,0.60
2014,02,08,12,42,0.60
2014,02,08,12,43,0.60
2014,02,08,12,44,0.60
2014,02,08,12,45,0.70
2014,02,08,12,46,0.70
2014,02,08,12,47,0.70
2014,02,08,12,48,0.80
2014,02,08,12,49,0.90
2014,02,08,12,50,0.90
2014,02,08,12,51,1.00
2014,02,08,12,52,1.10
2014,02,08,12,53,1.10
2014,02,08,12,54,1.20
2014,02,08,12,55,1.20
2014,02,08,12,56,1.30
2014,02,08,12,57,1.30
2014,02,08,12,58,1.30
2014,02,08,12,59,1.30
2014,02,08,13,00,1.30
2014,02,08,13,01,1.20
2014,02,08,13,02,1.20
2014,02,08,13,03,1.30
2014,02,08,13,04,1.30
2014,02,08,13,05,1.30
2014,02,08,13,06,1.30
2014,02,08,13,07,1.30
2014,02,08,13,08,1.30
2014,02,08,13,09,1.30
2014,02,08,13,10,1.30
2014,02,08,13,11,1.30
2014,02,08,13,12,1.30
2014,02,08,13,13,1.30
2014,02,08,13,14,1.30
2014,02,08,13,15,1.30
2014,02,08,13,16,1.30
2014,02,08,13,17,1.30
2014,02,08,13,18,1.30
2014,02,08,13,19,1.30
2014,02,08,13,20,1.30
2014,02,08,13,21,1.30
2014,02,08,13,22,1.30
2014,02,08,13,23,1.30
2014,02,08,13,24,1.30
2014,02,08,13,25,1.30
2014,02,08,13,26,1.30
2014,02,08,13,27,1.30
2014,02,08,13,28,1.30
2014,02,08,13,29,1.30
2014,02,08,13,30,1.30
2014,02,08,13,31,1.30
2014,02,08,13,32,1.30
2014,02,08,13,33,1.30
2014,02,08,13,34,1.30
2014,02,08,13,35,1.30
2014,02,08,13,36,1.40
2014,02,08,13,37,1.40
2014,02,08,13,38,1.40
2014,02,08,13,39,1.30
2014,02,08,13,40,1.30
2014,02,08,13,41,1.30
2014,02,08,13,42,1.30
2014,02,08,13,43,1.30
2014,02,08,13,44,1.30
2014,02,08,13,45,1.40
2014,02,08,13,46,1.40
2014,02,08,13,47,1.40
2014,02,08,13,48,1.40
2014,02,08,13,49,1.50
2014,02,08,13,50,1.50
2014,02,08,13,51,1.50
2014,02,08,13,52,1.50
2014,02,08,13,53,1.40
2014,02,08,13,54,1.40
2014,02,08,13,55,1.50
2014,02,08,13,56,1.50
2014,02,08,13,57,1.60
2014,02,08,13,58,1.60
2014,02,08,13,59,1.60
2014,02,08,14,00,1.70
2014,02,08,14,01,1.70
2014,02,08,14,02,1.70
2014,02,08,14,03,1.70
2014,02,08,14,04,1.70
2014,02,08,14,05,1.60
2014,02,08,14,06,1.60
2014,02,08,14,07,1.60
2014,02,08,14,08,1.60
2014,02,08,14,09,1.60
2014,02,08,14,10,1.60
2014,02,08,14,11,1.60
2014,02,08,14,12,1.60
2014,02,08,14,13,1.60
2014,02,08,14,14,1.60
2014,02,08,14,15,1.60
2014,02,08,14,16,1.60
2014,02,08,14,17,1.60
2014,02,08,14,18,1.60
2014,02,08,14,19,1.50
2014,02,08,14,20,1.40
2014,02,08,14,21,1.40
2014,02,08,14,22,1.30
2014,02,08,14,23,1.30
2014,02,08,14,24,1.30
2014,02,08,14,25,1.30
2014,02,08,14,26,1.30
2014,02,08,14,27,1.30
2014,02,08,14,28,1.30
2014,02,08,14,29,1.30
2014,02,08,14,30,1.30
2014,02,08,14,31,1.30
2014,02,08,14,32,1.30
2014,02,08,14,33,1.30
2014,02,08,14,34,1.30
2014,02,08,14,35,1.30
2014,02,08,14,36,1.30
2014,02,08,14,37,1.30
2014,02,08,14,38,1.30
2014,02,08,14,39,1.30
2014,02,08,14,40,1.30
2014,02,08,14,41,1.30
2014,02,08,14,42,1.30
2014,02,08,14,43,1.30
2014,02,08,14,44,1.30
2014,02,08,14,45,1.30
2014,02,08,14,46,1.30
2014,02,08,14,47,1.30
2014,02,08,14,48,1.30
2014,02,08,14,49,1.30
2014,02,08,14,50,1.30
2014,02,08,14,51,1.30
2014,02,08,14,52,1.30
2014,02,08,14,53,1.30
2014,02,08,14,54,1.30
2014,02,08,14,55,1.30
2014,02,08,14,56,1.30
2014,02,08,14,57,1.30
2014,02,08,14,58,1.30
2014,02,08,14,59,1.30
2014,02,08,15,00,1.30
2014,02,08,15,01,1.30
2014,02,08,15,02,1.30
2014,02,08,15,03,1.30
2014,02,08,15,04,1.30
2014,02,08,15,05,1.30
2014,02,08,15,06,1.30
2014,02,08,15,07,1.30
2014,02,08,15,08,1.30
2014,02,08,15,09,1.30
2014,02,08,15,10,1.20
2014,02,08,15,11,1.10
2014,02,08,15,12,1.10
2014,02,08,15,13,1.00
2014,02,08,15,14,0.90
2014,02,08,15,15,0.90
2014,02,08,15,16,0.80
2014,02,08,15,17,0.80
2014,02,08,15,18,0.80
2014,02,08,15,19,0.80
2014,02,08,15,20,0.90
2014,02,08,15,21,0.90
2014,02,08,15,22,0.90
2014,02,08,15,23,0.80
2014,02,08,15,24,0.80
2014,02,08,15,25,0.80
2014,02,08,15,26,0.80
2014,02,08,15,27,0.80
2014,02,08,15,28,0.80
2014,02,08,15,29,0.80
2014,02,08,15,30,0.80
2014,02,08,15,31,0.80
2014,02,08,15,32,0.80
2014,02,08,15,33,0.70
2014,02,08,15,34,0.70
2014,02,08,15,35,0.70
2014,02,08,15,36,0.70
2014,02,08,15,37,0.70
2014,02,08,15,38,0.70
2014,02,08,15,39,0.70
2014,02,08,15,40,0.70
2014,02,08,15,41,0.70
2014,02,08,15,42,0.60
2014,02,08,15,43,0.60
2014,02,08,15,44,0.60
2014,02,08,15,45,0.60
2014,02,08,15,46,0.60
2014,02,08,15,47,0.50
2014,02,08,15,48,0.50
2014,02,08,15,49,0.50
2014,02,08,15,50,0.50
2014,02,08,15,51,0.50
2014,02,08,15,52,0.50
2014,02,08,15,53,0.50
2014,02,08,15,54,0.50
2014,02,08,15,55,0.40
2014,02,08,15,56,0.40
2014,02,08,15,57,0.40
2014,02,08,15,58,0.40
2014,02,08,15,59,0.40
2014,02,08,16,00,0.40
2014,02,08,16,01,0.40
2014,02,08,16,02,0.40
2014,02,08,16,03,0.40
2014,02,08,16,04,0.30
2014,02,08,16,05,0.30
2014,02,08,16,06,0.30
2014,02,08,16,07,0.30
2014,02,08,16,08,0.30
2014,02,08,16,09,0.30
2014,02,08,16,10,0.30
2014,02,08,16,11,0.30
2014,02,08,16,12,0.30
2014,02,08,16,13,0.30
2014,02,08,16,14,0.30
2014,02,08,16,15,0.20
2014,02,08,16,16,0.20
2014,02,08,16,17,0.20
2014,02,08,16,18,0.20
2014,02,08,16,19,0.20
2014,02,08,16,20,0.20
2014,02,08,16,21,0.20
2014,02,08,16,22,0.20
2014,02,08,16,23,0.20
2014,02,08,16,24,0.20
2014,02,08,16,25,0.20
2014,02,08,16,26,0.10
2014,02,08,16,27,0.10
2014,02,08,16,28,0.10
2014,02,08,16,29,0.10
2014,02,08,16,30,0.10
2014,02,08,16,31,0.10
2014,02,08,16,32,0.10
2014,02,08,16,33,0.10
2014,02,08,16,34,0.10
2014,02,08,16,35,0.00
2014,02,08,16,36,0.00
2014,02,08,16,37,0.00
2014,02,08,16,38,0.00
2014,02,08,16,39,-0.10
2014,02,08,16,40,-0.10
2014,02,08,16,41,-0.10
2014,02,08,16,42,-0.10
2014,02,08,16,43,-0.20
2014,02,08,16,44,-0.20
2014,02,08,16,45,-0.20
2014,02,08,16,46,-0.20
2014,02,08,16,47,-0.20
2014,02,08,16,48,-0.30
2014,02,08,16,49,-0.30
2014,02,08,16,50,-0.30
2014,02,08,16,51,-0.30
2014,02,08,16,52,-0.30
2014,02,08,16,53,-0.30
2014,02,08,16,54,-0.30
2014,02,08,16,55,-0.40
2014,02,08,16,56,-0.40
2014,02,08,16,57,-0.40
2014,02,08,16,58,-0.40
2014,02,08,16,59,-0.50
2014,02,08,17,00,-0.50
2014,02,08,17,01,-0.50
2014,02,08,17,02,-0.60
2014,02,08,17,03,-0.60
2014,02,08,17,04,-0.60
2014,02,08,17,05,-0.60
2014,02,08,17,06,-0.60
2014,02,08,17,07,-0.60
2014,02,08,17,08,-0.70
2014,02,08,17,09,-0.70
2014,02,08,17,10,-0.70
2014,02,08,17,11,-0.70
2014,02,08,17,12,-0.70
2014,02,08,17,13,-0.80
2014,02,08,17,14,-0.80
2014,02,08,17,15,-0.80
2014,02,08,17,16,-0.80
2014,02,08,17,17,-0.80
2014,02,08,17,18,-0.90
2014,02,08,17,19,-0.90
2014,02,08,17,20,-0.90
2014,02,08,17,21,-0.90
2014,02,08,17,22,-0.90
2014,02,08,17,23,-0.90
2014,02,08,17,24,-1.00
2014,02,08,17,25,-1.00
2014,02,08,17,26,-1.00
2014,02,08,17,27,-1.00
2014,02,08,17,28,-1.00
2014,02,08,17,29,-1.00
2014,02,08,17,30,-1.00
2014,02,08,17,31,-1.00
2014,02,08,17,32,-1.00
2014,02,08,17,33,-1.00
2014,02,08,17,34,-1.10
2014,02,08,17,35,-1.10
2014,02,08,17,36,-1.10
2014,02,08,17,37,-1.10
2014,02,08,17,38,-1.10
2014,02,08,17,39,-1.10
2014,02,08,17,40,-1.10
2014,02,08,17,41,-1.10
2014,02,08,17,42,-1.10
2014,02,08,17,43,-1.10
2014,02,08,17,44,-1.10
2014,02,08,17,45,-1.10
2014,02,08,17,46,-1.10
2014,02,08,17,47,-1.20
2014,02,08,17,48,-1.20
2014,02,08,17,49,-1.20
2014,02,08,17,50,-1.10
2014,02,08,17,51,-1.10
2014,02,08,17,52,-1.10
2014,02,08,17,53,-1.10
2014,02,08,17,54,-1.10
2014,02,08,17,55,-1.20
2014,02,08,17,56,-1.20
2014,02,08,17,57,-1.20
2014,02,08,17,58,-1.20
2014,02,08,17,59,-1.20
2014,02,08,18,00,-1.20
2014,02,08,18,01,-1.20
2014,02,08,18,02,-1.20
2014,02,08,18,03,-1.20
2014,02,08,18,04,-1.20
2014,02,08,18,05,-1.20
2014,02,08,18,06,-1.20
2014,02,08,18,07,-1.20
2014,02,08,18,08,-1.20
2014,02,08,18,09,-1.20
2014,02,08,18,10,-1.20
2014,02,08,18,11,-1.20
2014,02,08,18,12,-1.20
2014,02,08,18,13,-1.20
2014,02,08,18,14,-1.20
2014,02,08,18,15,-1.20
2014,02,08,18,16,-1.20
2014,02,08,18,17,-1.20
2014,02,08,18,18,-1.20
2014,02,08,18,19,-1.20
2014,02,08,18,20,-1.20
2014,02,08,18,21,-1.20
2014,02,08,18,22,-1.20
2014,02,08,18,23,-1.20
2014,02,08,18,24,-1.20
2014,02,08,18,25,-1.20
2014,02,08,18,26,-1.20
2014,02,08,18,27,-1.20
2014,02,08,18,28,-1.20
2014,02,08,18,29,-1.20
2014,02,08,18,30,-1.20
2014,02,08,18,31,-1.20
2014,02,08,18,32,-1.20
2014,02,08,18,33,-1.20
2014,02,08,18,34,-1.20
2014,02,08,18,35,-1.20
2014,02,08,18,36,-1.20
2014,02,08,18,37,-1.30
2014,02,08,18,38,-1.30
2014,02,08,18,39,-1.30
2014,02,08,18,40,-1.30
2014,02,08,18,41,-1.30
2014,02,08,18,42,-1.30
2014,02,08,18,43,-1.30
2014,02,08,18,44,-1.30
2014,02,08,18,45,-1.30
2014,02,08,18,46,-1.40
2014,02,08,18,47,-1.40
2014,02,08,18,48,-1.40
2014,02,08,18,49,-1.40
2014,02,08,18,50,-1.40
2014,02,08,18,51,-1.40
2014,02,08,18,52,-1.40
2014,02,08,18,53,-1.40
2014,02,08,18,54,-1.40
2014,02,08,18,55,-1.40
2014,02,08,18,56,-1.40
2014,02,08,18,57,-1.40
2014,02,08,18,58,-1.40
2014,02,08,18,59,-1.40
2014,02,08,19,00,-1.40
2014,02,08,19,01,-1.40